| time (UTC) | temp F | wind direction | speed MPH | gust MPH | rain 1hr in | rain 24hr in | rain mn in | humidity % | barometer mb |
| 20260507153034 | 57 | 336 | 4.0 | 10.0 | 0.00 | 0.00 | 0.00 | 60 | 1021.4 |
| 20260507151536 | 56 | 327 | 5.0 | 9.0 | 0.00 | 0.00 | 0.00 | 63 | 1021.5 |
| 20260507150038 | 55 | 349 | 5.0 | 8.0 | 0.00 | 0.00 | 0.00 | 64 | 1021.5 |
| 20260507144534 | 55 | 3 | 3.0 | 8.0 | 0.00 | 0.00 | 0.00 | 66 | 1021.7 |
| 20260507143036 | 52 | 27 | 1.0 | 5.0 | 0.00 | 0.00 | 0.00 | 73 | 1021.6 |
| 20260507141531 | 50 | 9 | 2.0 | 7.0 | 0.00 | 0.00 | 0.00 | 77 | 1021.5 |
| 20260507140036 | 49 | 76 | 1.0 | 5.0 | 0.00 | 0.00 | 0.00 | 78 | 1021.4 |
| 20260507134534 | 50 | 338 | 4.0 | 9.0 | 0.00 | 0.00 | 0.00 | 75 | 1021.2 |
| 20260507130031 | 51 | 14 | 6.0 | 12.0 | 0.00 | 0.00 | 0.00 | 76 | 1021.2 |
| 20260507124604 | 51 | 16 | 4.0 | 8.0 | 0.00 | 0.00 | 0.00 | 74 | 1021.2 |
| 20260507123030 | 52 | 1 | 3.0 | 13.0 | 0.00 | 0.00 | 0.00 | 72 | 1021.2 |
| 20260507121607 | 52 | 307 | 5.0 | 16.0 | 0.00 | 0.00 | 0.00 | 72 | 1021.1 |
| 20260507120035 | 53 | 280 | 4.0 | 12.0 | 0.00 | 0.00 | 0.00 | 73 | 1021.1 |
| 20260507114534 | 52 | 253 | 4.0 | 13.0 | 0.00 | 0.00 | 0.00 | 73 | 1021.0 |
| 20260507111543 | 52 | 213 | 4.0 | 15.0 | 0.00 | 0.00 | 0.00 | 73 | 1021.0 |
| 20260507104535 | 53 | 291 | 4.0 | 17.0 | 0.00 | 0.00 | 0.00 | 70 | 1021.1 |
| 20260507103031 | 54 | 218 | 7.0 | 18.0 | 0.00 | 0.00 | 0.00 | 68 | 1021.1 |
| 20260507101536 | 55 | 237 | 9.0 | 21.0 | 0.00 | 0.00 | 0.00 | 66 | 1021.1 |
| 20260507094606 | 55 | 244 | 4.0 | 18.0 | 0.00 | 0.00 | 0.00 | 66 | 1021.3 |
| 20260507093037 | 55 | 244 | 4.0 | 13.0 | 0.00 | 0.00 | 0.00 | 66 | 1021.3 |
| 20260507091651 | 55 | 241 | 5.0 | 15.0 | 0.00 | 0.00 | 0.00 | 67 | 1021.4 |
| 20260507091641 | 55 | 241 | 5.0 | 13.0 | 0.00 | 0.00 | 0.00 | 67 | 1021.7 |
| 20260507084530 | 55 | 238 | 6.0 | 13.0 | 0.00 | 0.00 | 0.00 | 67 | 1021.8 |
| 20260507083035 | 55 | 237 | 7.0 | 17.0 | 0.00 | 0.00 | 0.00 | 68 | 1021.9 |
| 20260507081648 | 55 | 263 | 6.0 | 18.0 | 0.00 | 0.00 | 0.00 | 69 | 1021.9 |
| 20260507080034 | 55 | 287 | 6.0 | 16.0 | 0.00 | 0.00 | 0.00 | 71 | 1021.9 |
| 20260507073140 | 55 | 288 | 4.0 | 10.0 | 0.00 | 0.00 | 0.00 | 71 | 1021.9 |
| 20260507071534 | 55 | 303 | 4.0 | 11.0 | 0.00 | 0.00 | 0.00 | 70 | 1021.9 |
| 20260507070034 | 56 | 301 | 4.0 | 12.0 | 0.00 | 0.00 | 0.00 | 69 | 1021.9 |
| 20260507064531 | 56 | 272 | 5.0 | 14.0 | 0.00 | 0.00 | 0.00 | 69 | 1022.0 |
| 20260507063032 | 55 | 277 | 5.0 | 13.0 | 0.00 | 0.00 | 0.00 | 73 | 1022.1 |
| 20260507060037 | 56 | 52 | 1.0 | 4.0 | 0.00 | 0.00 | 0.00 | 69 | 1022.3 |
| 20260507053031 | 57 | 338 | 1.0 | 6.0 | 0.00 | 0.00 | 0.00 | 67 | 1022.5 |
| 20260507051534 | 58 | 266 | 5.0 | 11.0 | 0.00 | 0.00 | 0.00 | 65 | 1022.5 |
| 20260507050119 | 58 | 285 | 6.0 | 20.0 | 0.00 | 0.00 | 0.00 | 63 | 1022.4 |
| 20260507044607 | 58 | 296 | 5.0 | 13.0 | 0.00 | 0.00 | 0.00 | 62 | 1022.4 |
| 20260507043031 | 58 | 278 | 4.0 | 12.0 | 0.00 | 0.00 | 0.00 | 61 | 1022.3 |
| 20260507041531 | 59 | 247 | 4.0 | 11.0 | 0.00 | 0.00 | 0.00 | 60 | 1022.3 |
| 20260507040047 | 58 | 240 | 5.0 | 14.0 | 0.00 | 0.00 | 0.00 | 59 | 1022.2 |
| 20260507034537 | 59 | 214 | 2.0 | 11.0 | 0.00 | 0.00 | 0.00 | 57 | 1022.2 |
| 20260507031536 | 60 | 301 | 3.0 | 9.0 | 0.00 | 0.00 | 0.00 | 58 | 1022.1 |
| 20260507030038 | 61 | 273 | 5.0 | 18.0 | 0.00 | 0.00 | 0.00 | 57 | 1022.2 |
| 20260507023036 | 64 | 284 | 9.0 | 20.0 | 0.00 | 0.00 | 0.00 | 54 | 1022.1 |
| 20260507021538 | 65 | 282 | 8.0 | 18.0 | 0.00 | 0.00 | 0.00 | 51 | 1021.9 |
| 20260507020029 | 66 | 280 | 8.0 | 18.0 | 0.00 | 0.00 | 0.00 | 51 | 1021.8 |
| 20260507014528 | 67 | 273 | 8.0 | 17.0 | 0.00 | 0.00 | 0.00 | 49 | 1021.7 |
| 20260507013032 | 68 | 273 | 8.0 | 17.0 | 0.00 | 0.00 | 0.00 | 46 | 1021.6 |
| 20260507010036 | 68 | 276 | 8.0 | 18.0 | 0.00 | 0.00 | 0.00 | 44 | 1021.5 |
| 20260507004536 | 69 | 288 | 11.0 | 20.0 | 0.00 | 0.00 | 0.00 | 41 | 1021.4 |
| 20260507001532 | 70 | 276 | 9.0 | 20.0 | 0.00 | 0.00 | 0.00 | 41 | 1021.2 |
| 20260507000033 | 71 | 279 | 7.0 | 16.0 | 0.00 | 0.00 | 0.00 | 40 | 1021.1 |
| 20260506234607 | 71 | 288 | 9.0 | 20.0 | 0.00 | 0.00 | 0.00 | 38 | 1021.0 |
| 20260506230039 | 74 | 269 | 9.0 | 19.0 | 0.00 | 0.00 | 0.00 | 37 | 1021.1 |
| 20260506224534 | 74 | 277 | 7.0 | 18.0 | 0.00 | 0.00 | 0.00 | 37 | 1021.1 |
| 20260506223034 | 73 | 276 | 8.0 | 16.0 | 0.00 | 0.00 | 0.00 | 39 | 1021.3 |
| 20260506221544 | 72 | 267 | 9.0 | 21.0 | 0.00 | 0.00 | 0.00 | 40 | 1021.5 |
| 20260506220038 | 73 | 279 | 10.0 | 23.0 | 0.00 | 0.00 | 0.00 | 40 | 1021.3 |
| 20260506214537 | 73 | 293 | 9.0 | 19.0 | 0.00 | 0.00 | 0.00 | 41 | 1021.2 |
| 20260506213106 | 73 | 285 | 9.0 | 20.0 | 0.00 | 0.00 | 0.00 | 42 | 1021.2 |
| 20260506211608 | 73 | 291 | 7.0 | 18.0 | 0.00 | 0.00 | 0.00 | 43 | 1021.3 |
| 20260506210034 | 71 | 292 | 8.0 | 23.0 | 0.00 | 0.00 | 0.00 | 44 | 1021.4 |
| 20260506204528 | 72 | 281 | 9.0 | 19.0 | 0.00 | 0.00 | 0.00 | 44 | 1021.5 |
| 20260506203033 | 71 | 272 | 6.0 | 18.0 | 0.00 | 0.00 | 0.00 | 47 | 1021.4 |
| 20260506200028 | 71 | 268 | 5.0 | 13.0 | 0.00 | 0.00 | 0.00 | 47 | 1021.4 |
| 20260506194534 | 70 | 260 | 5.0 | 13.0 | 0.00 | 0.00 | 0.00 | 48 | 1021.5 |
| 20260506193034 | 71 | 268 | 4.0 | 12.0 | 0.00 | 0.00 | 0.00 | 49 | 1021.7 |
| 20260506191533 | 70 | 270 | 4.0 | 11.0 | 0.00 | 0.00 | 0.00 | 50 | 1021.7 |
| 20260506190034 | 69 | 297 | 8.0 | 16.0 | 0.00 | 0.00 | 0.00 | 49 | 1021.6 |
| 20260506184536 | 70 | 316 | 8.0 | 17.0 | 0.00 | 0.00 | 0.00 | 51 | 1021.3 |
| 20260506183144 | 69 | 316 | 4.0 | 11.0 | 0.00 | 0.00 | 0.00 | 53 | 1021.3 |
| 20260506181535 | 68 | 319 | 7.0 | 15.0 | 0.00 | 0.00 | 0.00 | 55 | 1021.5 |
| 20260506180036 | 69 | 334 | 7.0 | 15.0 | 0.00 | 0.00 | 0.00 | 53 | 1021.5 |
| 20260506174534 | 68 | 20 | 4.0 | 15.0 | 0.00 | 0.00 | 0.00 | 55 | 1021.4 |
| 20260506173034 | 67 | 5 | 3.0 | 8.0 | 0.00 | 0.00 | 0.00 | 56 | 1021.3 |
| 20260506171529 | 66 | 35 | 4.0 | 12.0 | 0.00 | 0.00 | 0.00 | 58 | 1021.3 |
| 20260506170150 | 66 | 1 | 3.0 | 11.0 | 0.00 | 0.00 | 0.00 | 59 | 1021.3 |
| 20260506164541 | 64 | 19 | 4.0 | 14.0 | 0.00 | 0.00 | 0.00 | 61 | 1021.4 |
| 20260506164531 | 63 | 323 | 6.0 | 11.0 | 0.00 | 0.00 | 0.00 | 63 | 1021.7 |
| 20260506161531 | 62 | 335 | 7.0 | 14.0 | 0.00 | 0.00 | 0.00 | 65 | 1021.8 |
| 20260506160034 | 61 | 339 | 6.0 | 13.0 | 0.00 | 0.00 | 0.00 | 67 | 1021.5 |
| 20260506154531 | 60 | 337 | 5.0 | 11.0 | 0.00 | 0.00 | 0.00 | 69 | 1021.7 |